Starlink 34156

operational
NORAD ID: 64108 Int'l Des: 2025-110 Owner: SPXS Country: US Constellation: starlink
LEOCIRCULAR

Über Starlink 34156

Beschreibung wird geladen...

Live-Position

3D-Globus wird geladen...

Nächste Überflüge

Höhenverlauf

Altitude vs Time

uPlot chart will show altitude changes over time

Zweizeiliger Elementsatz

1 64108U 25110N 25260.85917172 .00045497 00000-0 11407-2 0 9997
2 64108 53.1584 112.9325 0000902 98.5781 261.5326 15.39619144 19377
Epoch: 17. Sept. 2025 • Age: 28 hours

Aktueller Status

Höhe 447.9 km
Geschwindigkeit 7.64 km/s
Subsatellitenpunkt 0.61°N, 99.72°E
Startdatum 23. Mai 2025
Alter 0.3 years
Typ internet

Technische Details

Klassifizierung Payload
Masse 575.00 kg
Trockenmasse 530.00 kg
Gesamtmasse 575.00 kg
Länge 0.30 m
Durchmesser 4.10 m
Spannweite 29.00 m
Form Box + pan
Hersteller SPXS
Bus-Typ Starlink V2MO
Phasenstatus In Orbit
Besitzer/Staat SPXS/US

Große Konstellationen

Loading constellations...